TECHEDSAT 8

Last updated on April 23, 2020, 12:02 a.m. UTC

1 44032U 98067PY  20111.15468586  .13178104  12516-4  85387-3 0  9999
2 44032  51.6107 221.1148 0008059 315.3167  44.7209 16.40789031 69743

Satellite is not in orbit.